www.pogodaiklimat.ru
ПОГОДА в Колкате

Архив погоды в Колкате (Западная Бенгалия, Индия)

Время
(UTC), дата
18 12.01
21 12.01
00 13.01
03 13.01
06 13.01
09 13.01
12 13.01
15 13.01
18 13.01
21 13.01
00 14.01
03 14.01
06 14.01
09 14.01
12 14.01
15 14.01
18 14.01
21 14.01
00 15.01
03 15.01
06 15.01
09 15.01
12 15.01
15 15.01
18 15.01
21 15.01
00 16.01
03 16.01
06 16.01
09 16.01
12 16.01
15 16.01
18 16.01
21 16.01
00 17.01
03 17.01
06 17.01
09 17.01
12 17.01
15 17.01
18 17.01
21 17.01
00 18.01
03 18.01
06 18.01
09 18.01
12 18.01
15 18.01
18 18.01
21 18.01
00 19.01
03 19.01
06 19.01
09 19.01
12 19.01
15 19.01
Ветер
(напр.,м/с)
Видим. Явления Облачность Т
(С)
Тd
(С)
f
(%)
Тe
(С)
Тes
(С)
Комфортность P
(гПа)
Po
(гПа)
Тmin
(С)
Tmax
(С)
R
(мм)
R24
(мм)
S
(см)
штиль 0 1000 м дымка 9/6 540 м
[Sc Ac trans]
+19.2 +18.2 94 +21 +21 комфорт 1015.9 1015.2 0.0
штиль 0 1000 м дымка 9/6 540 м
[Sc Ac trans]
+18.2 +17.5 96 +19 +19 тепло 1015.2 1014.5 0.0
штиль 0 1000 м в посл. час дождь 10/8 540 м
[Sc As op]
+18.4 +17.4 94 +19 +19 тепло 1015.6 1014.9 0.0
СЗ 1 2000 м мгла 3/0
[Ac trans]
+19.4 +17.1 87 +23 +27 комфорт 1017.5 1016.8 +17.6 0.0
С 1 2000 м мгла 6/4 540 м
[Sc Ac trans]
+22.8 +18.4 76 +28 +35 душно 1016.4 1015.7
С 2 2000 м мгла 8/5 540 м
[Sc Ac trans]
+23.8 +16.3 63 +27 +29 жарко 1013.6 1012.9
С 2 2000 м мгла 9/6 540 м
[Sc Ac trans]
+20.4 +17.1 81 +24 +24 комфорт 1014.6 1013.9 +24.6
С 1 2000 м мгла 8/5 540 м
[Sc Ac trans]
+19.8 +17.5 87 +24 +24 комфорт 1015.9 1015.2
С 1 2000 м мгла 8/5 540 м
[Sc Ac trans]
+19.0 +17.4 90 +22 +22 комфорт 1015.9 1015.2
СВ 1 2000 м мгла 6/4 540 м
[Sc Ac trans]
+18.4 +17.4 94 +20 +20 тепло 1014.9 1014.2
СВ 1 1000 м слаб. морось 10/8 540 м
[Cb calv As op]
+18.4 +16.7 90 +20 +20 тепло 1015.6 1014.9 0.0
С 2 1000 м дымка {дождь} 10/8 540 м
[Cb calv As op]
+18.8 +17.2 90 +21 +21 комфорт 1018.7 1018.0 +17.4 1
С 1 1000 м дымка 10/8 540 м
[Cb calv As op]
+20.2 +16.2 78 +24 +25 комфорт 1018.2 1017.5
С 3 1000 м слаб. дождь 10/6 540 м
[Cb calv As op]
+19.8 +16.1 79 +23 +23 комфорт 1015.3 1014.6 0.0
СВ 3 2000 м слаб. дождь 10/6 540 м
[Sc As op]
+18.8 +15.4 81 +20 +20 по сезону 1015.1 1014.4 +20.7 0.0
С 3 2000 м слаб. дождь 10/6 540 м
[Sc As op]
+17.0 +14.2 84 +17 +17 прохладно 1016.0 1015.3 0.2
штиль 0 2000 м дымка {дождь} 10/6 540 м
[Sc As op]
+17.0 +13.5 80 +17 +17 по сезону 1016.1 1015.4 0.2
штиль 0 2000 м дымка 10/6 540 м
[Sc As op]
+16.6 +13.8 84 +16 +16 по сезону 1015.4 1014.7 0.2
С 1 1000 м слаб. дождь 10/6 540 м
[Cb calv As op]
+17.0 +16.0 94 +18 +18 тепло 1016.3 1015.6 0.4
С 1 1000 м дымка {дождь} 9/5 540 м
[Sc As op]
+17.6 +15.2 86 +19 +20 по сезону 1017.9 1017.2 +16.1 1
С 3 1000 м мгла {дождь} 8/5 540 м
[Sc Ac trans]
+20.0 +15.3 74 +23 +26 комфорт 1017.2 1016.5
С 2 2000 м мгла 4/1 600 м
[Sc Ac trans]
+23.4 +14.6 58 +27 +32 душно 1014.8 1014.1
С 1 2000 м мгла 1/0
[Ci fib]
+21.0 +13.7 63 +25 +25 комфорт 1015.4 1014.7 +23.8
С 1 2000 м мгла 3/0
[Ci fib]
+19.0 +13.8 72 +22 +22 комфорт 1016.3 1015.6
штиль 0 2000 м мгла 1/0
[Ac trans]
+17.0 +14.2 84 +17 +17 по сезону 1017.1 1016.4
С 1 2000 м мгла ясно +16.0 +14.3 90 +17 +17 тепло 1016.2 1015.5
С 2 1000 м дымка ясно +16.0 +12.0 77 +16 +16 тепло 1017.2 1016.5
С 3 2000 м мгла ясно +17.4 +12.0 71 +18 +22 по сезону 1020.7 1020.0 +15.0
С 3 2000 м мгла ясно +21.0 +11.7 55 +24 +34 комфорт 1019.6 1018.9
СЗ 2 2000 м мгла ясно +22.4 +12.2 52 +25 +31 комфорт 1016.6 1015.9
СЗ 1 2000 м мгла ясно +20.0 +11.3 57 +23 +23 комфорт 1016.8 1016.1 +22.7
штиль 0 2000 м мгла ясно +17.4 +12.0 71 +17 +17 по сезону 1018.4 1017.7
С 1 2000 м мгла ясно +16.2 +11.8 75 +18 +18 тепло 1019.2 1018.5
С 1 2000 м мгла ясно +14.8 +10.6 76 +15 +15 по сезону 1018.3 1017.6
С 1 2000 м мгла ясно +13.6 +11.0 84 +14 +14 тепло 1018.3 1017.6
СЗ 1 1000 м дымка ясно +15.4 +11.3 77 +16 +21 по сезону 1021.0 1020.3 +12.7
СЗ 1 2000 м мгла ясно +20.4 +12.2 59 +23 +37 комфорт 1019.4 1018.7
С 2 2000 м мгла ясно +22.4 +13.0 55 +25 +31 комфорт 1016.2 1015.5
С 2 2000 м мгла ясно +20.6 +13.7 65 +24 +24 комфорт 1016.6 1015.9 +22.9
СЗ 1 2000 м мгла ясно +18.0 +14.2 78 +19 +19 тепло 1018.3 1017.6
СЗ 2 2000 м мгла ясно +17.0 +13.1 78 +18 +18 тепло 1018.5 1017.8
С 2 1000 м дымка ясно +16.9 +13.0 78 +17 +17 тепло 1016.9 1016.2
СЗ 1 1000 м дымка ясно +14.0 +12.2 89 +14 +14 тепло 1016.5 1015.8
С 2 1000 м дымка ясно +15.2 +11.5 79 +15 +21 по сезону 1018.2 1017.5 +13.3
СЗ 1 2000 м мгла 3/0
[Ac trans]
+20.6 +12.1 58 +24 +35 комфорт 1016.8 1016.1
С 2 2000 м мгла ясно +22.4 +10.9 48 +24 +30 комфорт 1013.2 1012.5
штиль 0 2000 м мгла ясно +20.8 +12.7 60 +23 +23 комфорт 1013.4 1012.7 +23.3
штиль 0 2000 м дымка ясно +17.8 +13.6 76 +18 +18 тепло 1015.2 1014.5
штиль 0 1000 м дымка ясно +16.0 +13.5 85 +16 +16 тепло 1015.3 1014.6
С 3 1000 м дымка 3/0
[Ac trans]
+15.6 +13.1 85 +15 +15 тепло 1014.2 1013.5
С 2 1000 м дымка 4/0
[Ac trans]
+14.4 +12.2 87 +14 +14 тепло 1014.4 1013.7
СЗ 2 1000 м дымка 1/0
[Ac trans]
+15.2 +11.5 79 +15 +20 тепло 1016.4 1015.7 +13.5
С 2 2000 м мгла ясно +19.6 +11.2 58 +22 +35 комфорт 1014.5 1013.8
З 2 2000 м мгла ясно +22.8 +11.8 50 +25 +31 комфорт 1011.7 1011.0
СЗ 1 2000 м мгла ясно +20.4 +13.4 64 +24 +24 комфорт 1011.2 1010.5 +23.2
штиль 0 2000 м мгла ясно +17.0 +13.1 78 +17 +17 тепло 1012.6 1011.9
Местоположение метеостанции Колката (Западная Бенгалия, Индия): широта 22.65 долгота 88.45 высота над уровнем моря 6 м.
В архиве по умолчанию представлена погода в Колкате за последнюю неделю. Архивные данные за месяц целиком и за предыдущие месяцы, начиная с января 2011 года, Вы можете получить, выбрав интересующий диапазон дат из раскрывающегося списка и нажав кнопку "Найти!".
*Определитесь, кто Вы:
Внимание! Время в таблицах - всемирное. Для получения местного времени необходимо прибавить поправку, которая равна 5.5 ч.
Смотрите также архив погоды в соседних городах и на ближайших метеорологических станциях:
Партнеры нашего сайта:      
Пояснения к столбцам:
  • Ветер - указаны скорость ветра в м/с - средняя за 10 мин, порывы в срок и между сроками (в фигурных скобках) и направление, откуда дует ветер: С - северный,
  • СВ - северо-восточный, В - восточный, ЮВ - юго-восточный, Ю - южный, ЮЗ - юго-западный, З - западный, СЗ - северо-западный.
  • Видимость - горизонтальная дальность видимости в метрах или километрах. При видимости от 1 до 10 км при отсутствии осадков обычно наблюдается дымка, при ухудшении видимости до 1 км и менее - туман. В сухую погоду видимость может ухудшаться дымом, пылью или мглою.
  • Явления - указаны атмосферные явления, наблюдавшиеся в срок или в последний час перед сроком; фигурными скобками обозначены явления, наблюдавшиеся между сроками (за 1-3 часа до срока); квадратными скобками обозначены град или гололедные отложения с указанием их диаметра в мм.
  • Облачность - указаны через наклонную черту общая и нижняя облачность в баллах и высота нижней границы облаков в метрах; квадратными скобками обозначены формы облаков: Ci - перистые, Cs - перисто-слоистые, Cc - перисто-кучевые, Ac - высококучевые, As - высокослоистые, Sc - слоисто-кучевые, Ns - слоисто-дождевые, Cu - кучевые, Cb - кучево-дождевые. Подробнее классификацию облаков см. в Атласе облаков (PDF).
  • T - Температура воздуха - температура, измеренная на высоте 2 м над землей.
  • Td - Температура точки росы - температура, при понижении до которой содержащийся в воздухе водяной пар достигнет насыщения.
  • f - Относительная влажность воздуха - влажноcть воздуха, измеренная на высоте 2 м над землей.
  • Te - Эффективная температура - температура, которую ощущает одетый по сезону человек в тени. Характеристика душности погоды. При расчете учитывается влияние влажности воздуха и скорости ветра на теплоощущения человека.
  • Tes - Эффективная температура на солнце - температура, которую ощущает человек, с поправкой на солнечный нагрев. Характеристика знойности погоды. Зависит от высоты солнца над горизонтом, облачности и скорости ветра. Ночью, в пасмурную погоду, а также при ветре 12 м/с и более поправка равна нулю.
  • P - Атмосферное давление - приведенное к уровню моря атмосферное давление.
  • Po - Атмосферное давление - измеренное на уровне метеостанции атмосферное давление.
  • Tmin - Минимальная температура - минимум температуры воздуха на высоте 2 м над землей.
  • Tmax - Максимальная температура - максимум температуры воздуха на высоте 2 м над землей.
  • R - Количество осадков - Количество выпавших осадков за период времени, мм. При наведении курсора мыши на число - период времени, за который выпало указанное количество осадков.
  • R24 - Количество осадков - Количество выпавших осадков за 24 часа, мм.
  • S - Снежный покров - Высота снежного покрова, см. При наведении курсора мыши на число - состояние снежного покрова и степень покрытия местности в баллах.